Theta_e
309 316 328 331 335 339 343 346 347 347 347 345 345 345 344 347 349 349 350 352 352 352 352 351 350 349 348 346 346 346 346 346 346 347 344 342 339 339 341 342 344 343 346
311 317 326 328 330 332 334 339 342 344 346 347 345 346 345 345 348 349 352 352 351 350 351 350 349 349 348 347 347 348 347 347 345 344 343 342 343 341 340 342 343 343 346
310 315 318 325 326 328 330 330 332 334 340 344 346 345 345 345 345 348 349 349 350 350 349 349 349 347 348 348 348 348 347 346 344 342 341 338 339 341 341 342 343 344 346
307 311 315 322 322 323 325 324 326 329 331 334 338 343 345 344 345 346 348 349 348 348 348 348 347 347 347 347 347 348 346 345 342 340 338 338 338 342 342 342 342 345 346
302 306 313 317 319 320 321 321 322 323 325 328 331 334 339 342 344 345 347 348 347 348 348 347 348 347 347 346 346 346 346 343 339 336 336 337 339 341 342 343 343 345 344
300 302 310 314 316 317 317 317 317 318 320 321 323 327 329 333 337 342 344 346 347 348 347 347 347 347 346 345 345 346 344 341 337 335 335 335 337 340 343 343 343 344 343
299 299 303 310 311 313 313 314 314 315 316 316 317 320 323 325 328 334 339 343 345 346 346 347 347 345 345 344 344 344 342 338 334 332 332 334 337 339 343 343 343 344 344
298 299 299 303 307 308 309 310 311 312 312 313 314 314 316 318 322 329 333 339 343 344 345 346 345 343 343 343 343 342 339 334 328 330 331 333 334 338 343 343 344 343 343
298 297 297 298 300 302 304 306 307 308 309 309 309 310 311 312 317 321 324 330 337 342 343 343 343 343 342 342 342 340 336 330 329 327 328 331 333 338 342 343 344 344 344
297 296 296 297 297 297 299 302 303 304 305 305 305 305 306 307 309 312 321 322 326 331 340 341 342 342 342 340 339 336 332 328 328 325 327 329 332 337 340 342 343 343 342
296 296 296 296 296 296 298 298 300 300 301 301 301 302 302 303 304 308 314 323 322 323 334 340 341 340 338 335 334 333 329 333 327 326 325 326 331 337 340 340 341 341 341
294 294 295 295 295 295 295 297 297 297 297 298 299 299 300 301 304 305 310 318 320 320 325 335 338 336 332 339 337 331 336 331 326 325 326 326 331 336 339 339 340 340 340
294 294 295 294 295 295 295 296 295 296 296 297 297 298 299 300 302 304 308 313 318 317 321 332 336 338 338 337 337 336 334 332 328 325 324 325 331 335 336 338 339 339 339
292 292 293 293 293 294 294 294 294 294 295 295 296 297 298 299 300 301 303 306 312 319 317 318 330 335 337 336 337 336 333 330 327 325 324 322 329 335 336 336 338 339 339
291 291 292 292 292 293 293 293 293 293 294 294 295 296 298 297 298 300 302 304 307 312 317 318 318 329 334 335 335 334 332 329 327 325 325 317 324 333 337 336 336 337 339
290 290 291 291 292 292 291 292 292 293 293 293 293 294 296 298 298 299 300 301 304 307 312 316 315 314 321 333 333 333 332 330 326 324 324 323 321 328 334 338 338 337 337
290 290 290 291 292 290 290 291 292 292 292 292 292 294 295 297 297 297 299 300 302 304 306 310 313 315 314 325 331 331 332 330 327 324 322 323 322 321 327 335 337 338 339
289 289 289 290 289 289 289 290 290 291 291 292 293 294 295 295 296 296 297 299 302 304 305 306 311 313 313 313 326 330 329 330 327 324 323 322 321 322 322 328 333 336 338
288 288 288 288 288 288 288 289 289 290 290 291 292 293 294 295 296 296 297 299 301 303 304 306 308 313 314 313 315 328 329 328 327 325 323 322 322 321 322 321 323 326 333
288 287 287 287 288 288 288 288 288 288 289 290 291 292 294 295 295 296 297 298 299 301 302 304 306 311 317 318 316 321 327 326 326 325 324 322 322 321 321 321 322 321 322
287 286 286 286 287 287 286 285 285 285 287 288 290 292 293 294 294 294 296 297 298 299 300 302 304 306 310 314 317 317 323 325 324 322 323 322 322 320 319 321 322 322 321
285 285 285 286 286 286 286 286 286 285 286 288 290 290 292 294 295 295 295 297 297 298 298 300 303 304 307 311 313 316 309 312 321 322 322 321 320 320 319 318 321 321 321
284 284 285 285 286 286 286 286 285 286 286 287 289 289 291 292 293 293 294 295 296 299 298 299 301 302 303 307 313 315 307 308 311 315 318 318 318 317 319 317 318 320 320
284 284 284 285 285 286 285 284 283 283 282 285 286 288 289 290 291 293 293 294 295 298 299 300 301 303 306 304 309 315 319 314 310 307 313 315 317 317 316 317 317 318 319
284 283 283 284 284 284 284 284 283 282 283 285 286 286 287 290 291 292 293 294 294 297 299 299 300 303 305 306 308 308 316 313 316 310 307 311 314 316 316 317 317 317 317
283 283 283 282 283 284 284 283 282 281 281 282 284 285 286 288 290 291 292 294 296 297 298 299 301 302 305 307 309 310 310 312 312 311 307 311 311 314 316 317 317 316 316
Wind_Speed
10 12 20 22 24 24 22 21 19 15 6 3 3 4 3 3 7 8 8 9 9 10 11 10 9 11 12 11 11 9 10 11 10 9 8 6 7 9 9 6 5 6 8
5 12 19 22 24 25 24 23 21 21 18 13 8 6 4 3 3 5 7 8 9 9 10 11 10 9 12 9 9 10 11 10 9 8 7 7 7 8 8 5 4 3 9
9 10 14 21 22 22 23 24 23 23 22 21 16 10 8 6 5 4 5 6 8 10 10 11 11 9 10 10 10 12 11 9 10 9 7 6 7 7 7 5 4 5 14
8 8 13 18 20 21 22 22 21 22 22 22 21 20 14 10 8 7 7 7 8 10 10 10 11 10 8 10 11 12 12 11 10 10 6 6 7 8 7 6 4 10 16
9 9 12 18 19 20 21 22 21 20 20 20 21 21 19 19 12 11 9 8 10 11 11 12 12 11 12 10 10 12 13 12 11 9 7 6 6 7 8 8 6 11 12
9 9 13 18 19 19 21 21 22 22 21 20 19 18 21 20 17 16 12 12 11 11 12 13 11 11 11 10 10 12 13 12 11 9 7 7 7 6 11 9 7 13 11
8 8 10 17 18 18 19 21 21 22 22 21 20 18 16 18 20 17 16 13 13 12 13 12 12 11 13 12 10 11 12 13 11 9 8 7 7 7 11 10 12 14 13
8 8 9 13 17 17 18 20 20 20 21 21 21 19 18 17 16 16 16 16 15 16 14 13 12 12 15 14 12 12 12 11 10 9 9 8 8 7 12 12 15 15 15
6 7 7 9 11 15 16 19 20 21 20 20 20 19 20 19 16 16 16 14 16 16 16 15 13 12 15 15 14 12 12 12 11 7 8 6 10 10 11 14 16 17 15
5 6 6 6 8 9 7 15 17 19 20 19 18 18 19 17 17 16 14 14 16 17 17 17 14 14 16 16 15 13 13 13 12 9 7 7 11 11 11 14 15 16 16
3 5 6 7 7 8 7 9 12 13 17 18 14 16 14 9 12 12 13 14 17 17 17 16 16 16 14 14 14 14 14 8 11 8 6 10 14 14 11 13 14 15 13
1 3 5 6 7 7 7 7 8 9 8 8 9 11 8 11 9 12 12 13 13 14 15 16 15 15 13 8 7 13 8 10 9 9 8 13 15 18 16 14 12 13 13
2 4 7 8 9 9 8 6 4 5 6 6 9 9 9 8 8 7 6 6 7 6 5 8 9 8 11 9 9 9 11 12 8 7 11 15 17 19 20 17 15 13 14
2 0 3 5 6 6 4 5 7 6 6 7 9 11 8 6 7 8 6 8 7 5 5 6 6 9 11 13 13 13 13 11 8 6 10 15 17 19 20 20 16 16 15
2 5 7 8 9 8 9 7 7 8 7 9 9 9 8 8 8 8 8 8 8 8 6 4 6 8 9 12 12 13 14 14 13 8 7 14 16 19 20 21 19 18 19
3 5 6 9 7 8 10 11 9 8 9 8 9 9 11 9 8 9 9 8 8 8 8 6 5 6 8 10 13 14 15 14 14 12 9 10 16 18 20 21 21 20 21
1 4 6 9 8 9 10 9 8 8 9 9 9 11 12 11 11 11 9 9 9 9 12 9 8 7 7 9 13 13 13 15 13 14 11 9 11 15 17 20 20 19 19
4 6 7 8 10 10 10 9 9 9 9 9 9 9 12 12 12 11 9 9 9 9 8 9 9 7 7 7 9 12 12 13 15 15 13 10 9 9 12 16 18 19 18
3 6 8 8 9 10 10 9 10 11 9 9 9 9 12 12 12 11 10 9 10 9 8 9 8 10 8 8 9 10 12 13 14 12 16 15 13 11 9 14 14 13 15
3 4 6 7 8 8 8 8 8 8 8 8 9 9 12 9 12 11 10 11 10 9 9 9 11 9 10 9 9 11 11 10 12 12 14 12 13 14 13 12 10 10 14
5 5 6 8 9 7 8 8 7 8 9 10 10 13 14 11 12 13 9 11 10 10 11 12 10 12 10 9 9 7 12 14 11 9 10 10 13 14 13 12 9 8 8
5 5 6 7 8 8 7 8 7 9 9 10 11 13 14 14 11 11 12 11 12 10 13 13 12 9 10 8 7 6 4 3 10 11 11 12 14 11 12 12 13 12 10
5 6 7 9 10 9 10 8 8 9 9 9 8 10 10 13 14 14 13 11 13 11 10 12 12 14 10 9 14 9 4 4 4 3 9 10 12 9 10 11 12 13 13
5 5 7 9 10 10 11 10 13 11 12 10 11 11 12 15 16 15 15 14 13 11 13 11 11 12 11 12 8 11 15 3 3 4 4 9 9 10 11 8 8 12 12
5 6 7 8 11 10 10 12 11 13 11 10 11 15 15 13 13 15 15 14 14 11 13 15 14 14 12 11 11 10 11 5 4 4 3 6 7 10 9 9 11 9 11
5 6 7 8 11 10 10 13 15 16 15 13 13 12 11 10 10 13 14 13 13 14 15 14 15 16 14 13 11 11 11 11 9 4 4 9 12 8 10 11 12 11 10
Wind_Direction
359 358 15 30 37 33 29 29 26 15 3 15 4 13 350 175 185 180 179 172 173 181 177 176 166 166 156 156 157 149 138 148 150 136 129 130 140 138 133 113 107 146 157
349 6 17 30 36 38 37 30 29 23 20 3 343 335 317 320 211 196 184 183 183 191 184 175 169 173 175 170 153 147 143 147 140 132 136 133 137 149 149 135 152 166 173
32 14 27 33 35 38 40 34 32 27 23 16 8 338 315 293 266 223 207 208 197 205 204 189 174 166 171 167 158 157 151 146 141 143 139 153 156 164 164 169 181 195 144
42 25 33 33 34 35 36 37 31 28 27 20 12 7 348 304 283 250 226 218 222 220 212 199 191 175 170 163 165 165 161 155 149 146 162 170 172 172 178 185 189 162 142
47 31 37 38 37 35 34 30 28 27 24 21 15 8 1 1 312 281 252 229 225 229 224 213 202 195 186 182 182 182 167 160 151 159 169 181 192 193 190 190 187 156 146
47 35 35 41 40 40 36 31 25 22 20 17 15 5 3 358 349 352 285 258 229 226 232 228 212 204 192 193 192 190 169 161 159 169 176 185 202 215 205 192 180 153 148
46 43 44 43 40 39 35 30 24 17 12 10 6 2 358 350 348 340 332 291 257 236 232 235 230 219 193 194 196 187 173 165 176 176 185 186 203 231 211 188 168 156 154
57 40 38 37 38 36 32 24 19 14 9 1 357 354 353 347 339 341 338 329 299 259 242 238 234 227 208 189 196 193 192 175 183 184 187 187 196 224 214 191 168 167 162
64 57 39 31 28 25 21 18 11 6 4 359 353 351 347 341 339 333 336 330 332 297 264 242 230 226 220 196 196 197 193 172 190 195 190 194 197 210 217 196 174 171 169
59 58 48 40 25 13 7 11 6 360 356 354 350 347 342 335 335 329 323 324 320 317 299 257 236 224 222 212 199 193 186 175 194 196 207 197 203 209 222 195 175 171 179
37 40 29 22 17 10 357 359 355 353 350 345 344 339 336 331 324 323 318 309 315 313 307 285 248 229 221 216 200 190 178 193 196 198 199 202 206 206 203 191 173 166 168
33 32 32 16 359 353 352 349 343 338 336 333 331 330 328 319 316 314 306 309 306 305 321 285 273 236 219 218 210 195 194 196 197 198 200 198 209 209 212 199 194 172 171
13 11 4 0 350 345 343 341 333 327 325 323 322 320 315 316 313 313 309 309 305 302 299 295 259 249 225 214 208 204 200 200 198 204 207 195 207 210 213 216 208 200 186
199 312 341 341 329 321 311 319 322 322 323 317 318 313 313 309 309 306 302 302 298 296 286 281 287 246 227 211 207 202 198 200 197 204 210 197 200 209 212 212 211 207 207
34 355 347 339 335 336 335 327 325 321 312 310 307 306 305 301 300 300 296 293 290 294 282 271 287 280 228 218 208 204 199 199 200 199 209 199 202 206 212 214 216 219 214
7 347 332 336 330 336 329 323 317 313 309 306 303 298 297 290 293 293 289 287 285 283 286 279 273 271 304 224 215 208 204 202 200 200 203 204 206 208 212 212 214 221 225
320 320 344 333 331 321 319 318 312 300 306 300 296 293 290 288 287 287 284 281 281 279 281 280 270 257 256 274 222 209 208 205 203 199 201 204 203 210 210 213 210 217 223
356 343 320 325 325 325 322 312 310 305 298 290 288 291 286 283 285 283 281 277 276 276 277 273 272 261 246 255 275 214 210 208 204 201 202 198 197 201 209 214 217 217 220
325 310 315 318 310 313 312 306 303 297 289 286 286 286 280 280 282 279 274 276 279 272 268 269 265 262 257 245 253 254 211 205 207 201 201 201 198 195 202 208 213 217 220
283 283 284 289 295 303 305 303 297 295 294 290 283 278 274 267 284 280 275 276 274 269 265 258 260 257 255 247 253 250 231 203 202 204 207 201 198 199 200 204 210 220 219
265 281 301 307 312 322 324 320 314 306 301 296 288 284 279 271 276 278 269 270 268 264 260 262 259 258 253 260 267 258 219 197 213 200 199 204 208 201 199 203 204 210 218
285 302 307 306 313 315 310 305 299 302 294 292 287 283 279 272 270 272 271 262 260 265 265 259 253 252 254 242 247 243 201 298 209 203 198 198 204 203 200 200 203 206 209
302 310 316 310 307 308 312 307 299 294 288 283 283 292 283 281 278 271 269 267 268 258 259 257 250 242 248 241 234 236 205 196 147 178 200 192 198 194 210 200 202 205 205
282 289 296 299 301 306 311 299 295 292 290 289 289 280 284 282 278 275 274 267 265 257 251 253 246 245 240 240 237 242 245 165 208 162 194 193 204 204 197 205 200 212 204
283 294 290 294 291 293 294 293 295 290 287 291 285 289 285 280 281 280 275 275 266 252 252 254 248 241 237 238 233 240 237 222 214 140 165 188 201 202 197 189 212 204 204
283 277 283 284 291 291 294 288 287 285 290 288 290 287 285 280 274 275 275 269 259 258 252 248 245 241 238 237 231 239 240 222 228 155 125 192 198 195 197 197 208 205 199